Point Pleasant, WV

7:59 AM EDT on July 22, 2017 (GMT -0400)
Point Pleasant

Weather History for K3I2 - January, 2009

Change the Weather History Date:

Tuesday, January 27, 2009

  Actual Average (KHTS) Record (KHTS)
Temperature  
Mean Temperature 26 °F -  
Max Temperature 30 °F 41 °F 71 °F (1999)
Min Temperature 23 °F 24 °F -5 °F (1936)
Degree Days  
Heating Degree Days 38    
Moisture  
Dew Point 23 °F    
Average Humidity 83    
Maximum Humidity 93    
Minimum Humidity 74    
Precipitation  
Precipitation 0.00 in - - ()
Sea Level Pressure  
Sea Level Pressure 30.32 in    
Wind  
Wind Speed 2 mph (NE)    
Max Wind Speed 8 mph    
Max Gust Speed -    
Visibility 4 miles    
Events Snow    
Averages and records for this station are not official NWS values.
T = Trace of Precipitation, MM = Missing Value Source: NWS Daily Summary

Daily Weather History Graph

Daily Weather History Graph

Search for Another Location

Airport or City:

Trip Planner

Search our weather history database for the weather conditions in past years. The results will help you decide how hot, cold, wet, or windy it might be!

Date:

Astronomy

Jan. 27, 2009 Rise Set
Actual Time 7:38 AM EST 5:44 PM EST
Civil Twilight 7:10 AM EST 6:12 PM EST
Nautical Twilight 6:38 AM EST 6:44 PM EST
Astronomical Twilight 6:06 AM EST 7:16 PM EST
Moon 8:18 AM EST (1/27) 7:16 PM EST (1/27)
Length of Visible Light 11h 02m
Length of Day
10h 05m
New Moon, 2% of the Moon is Illuminated
Jan 27
New Moon
Feb 2
First Quarter
Feb 9
Full
Feb 16
Last Quarter
Feb 24
New

Hourly Weather History & Observations

Time (EST) Temp. Windchill Dew Point Humidity Pressure Visibility Wind Dir Wind Speed Gust Speed Precip Events Conditions
12:00 AM 26.6 °F - 19.4 °F 74% 30.40 in 10.0 mi Calm Calm - N/A   Overcast
12:20 AM 26.6 °F - 19.4 °F 74% 30.42 in 10.0 mi Calm Calm - N/A   Overcast
12:40 AM 26.6 °F - 19.4 °F 74% 30.41 in 10.0 mi Calm Calm - N/A   Overcast
1:00 AM 26.6 °F - 19.4 °F 74% 30.40 in 10.0 mi Calm Calm - N/A   Overcast
1:20 AM 26.6 °F 22.6 °F 21.2 °F 80% 30.37 in 5.0 mi ENE 3.5 mph - N/A Snow Light Snow
1:40 AM 26.6 °F - 21.2 °F 80% 30.39 in 3.0 mi Calm Calm - N/A Snow Light Snow
2:00 AM 26.6 °F - 21.2 °F 80% 30.39 in 7.0 mi Calm Calm - N/A   Overcast
2:20 AM 26.6 °F - 21.2 °F 80% 30.42 in 5.0 mi Calm Calm - N/A Snow Light Snow
2:40 AM 26.6 °F - 21.2 °F 80% 30.43 in 0.8 mi Calm Calm - N/A Snow Light Snow
3:00 AM 26.6 °F - 21.2 °F 80% 30.43 in 0.2 mi Calm Calm - N/A Snow Snow
3:20 AM 26.6 °F - 23.0 °F 86% 30.42 in 0.5 mi Calm Calm - N/A Snow Snow
4:00 AM 26.6 °F - 23.0 °F 86% 30.40 in 0.8 mi Calm Calm - N/A Snow Light Snow
4:20 AM 26.6 °F 22.6 °F 21.2 °F 80% 30.41 in 0.5 mi NE 3.5 mph - N/A Snow Snow
4:40 AM 24.8 °F 20.5 °F 21.2 °F 86% 30.40 in 0.8 mi ENE 3.5 mph - N/A Snow Light Snow
5:00 AM 24.8 °F - 21.2 °F 86% 30.40 in 0.5 mi Calm Calm - N/A Snow Snow
5:20 AM 24.8 °F - 21.2 °F 86% 30.40 in 0.8 mi Calm Calm - N/A Snow Light Snow
5:40 AM 24.8 °F - 21.2 °F 86% 30.41 in 1.0 mi Calm Calm - N/A Snow Light Snow
6:00 AM 24.8 °F 20.5 °F 21.2 °F 86% 30.41 in 0.8 mi NE 3.5 mph - N/A Snow Light Snow
6:20 AM 24.8 °F 20.5 °F 21.2 °F 86% 30.42 in 0.5 mi NE 3.5 mph - N/A Snow Light Snow
6:40 AM 24.8 °F - 21.2 °F 86% 30.43 in 1.2 mi Calm Calm - N/A Snow Light Snow
7:20 AM 24.8 °F 20.5 °F 21.2 °F 86% 30.43 in 1.2 mi NE 3.5 mph - N/A Snow Light Snow
7:40 AM 23.0 °F 17.0 °F 19.4 °F 86% 30.43 in 1.2 mi NE 4.6 mph - N/A Snow Light Snow
8:20 AM 23.0 °F 18.4 °F 19.4 °F 86% 30.43 in 1.5 mi ENE 3.5 mph - N/A Snow Light Snow
8:40 AM 23.0 °F 18.4 °F 19.4 °F 86% 30.42 in 2.5 mi NE 3.5 mph - N/A Snow Light Snow
9:00 AM 24.8 °F 20.5 °F 19.4 °F 80% 30.43 in 2.5 mi NE 3.5 mph - N/A Snow Light Snow
9:20 AM 24.8 °F 20.5 °F 19.4 °F 80% 30.42 in 2.0 mi ENE 3.5 mph - N/A Snow Light Snow
9:40 AM 24.8 °F 19.1 °F 19.4 °F 80% 30.41 in 1.8 mi ENE 4.6 mph - N/A Snow Light Snow
10:00 AM 24.8 °F 20.5 °F 19.4 °F 80% 30.40 in 2.5 mi ENE 3.5 mph - N/A Snow Light Snow
10:20 AM 24.8 °F 20.5 °F 21.2 °F 86% 30.40 in 1.0 mi NE 3.5 mph - N/A Snow Light Snow
10:40 AM 24.8 °F 20.5 °F 21.2 °F 86% 30.40 in 1.5 mi NE 3.5 mph - N/A Snow Light Snow
11:00 AM 26.6 °F 21.2 °F 21.2 °F 80% 30.38 in 2.0 mi NE 4.6 mph - N/A Snow Light Snow
11:20 AM 26.6 °F 18.2 °F 21.2 °F 80% 30.35 in 3.0 mi ENE 8.1 mph - N/A Snow Light Snow
11:40 AM 26.6 °F 21.2 °F 21.2 °F 80% 30.35 in 7.0 mi NE 4.6 mph - N/A   Overcast
12:00 PM 26.6 °F 20.0 °F 21.2 °F 80% 30.33 in 7.0 mi NE 5.8 mph - N/A   Overcast
12:20 PM 26.6 °F 20.0 °F 21.2 °F 80% 30.30 in 10.0 mi ENE 5.8 mph - N/A   Overcast
12:40 PM 26.6 °F 21.2 °F 21.2 °F 80% 30.29 in 7.0 mi NNE 4.6 mph - N/A   Overcast
1:00 PM 28.4 °F 24.6 °F 21.2 °F 74% 30.29 in 7.0 mi NNE 3.5 mph - N/A   Overcast
1:20 PM 28.4 °F 22.2 °F 21.2 °F 74% 30.27 in 7.0 mi NE 5.8 mph - N/A   Overcast
1:40 PM 28.4 °F 22.2 °F 21.2 °F 74% 30.26 in 7.0 mi NE 5.8 mph - N/A   Overcast
2:00 PM 28.4 °F 22.2 °F 21.2 °F 74% 30.25 in 7.0 mi ENE 5.8 mph - N/A   Overcast
2:20 PM 28.4 °F 22.2 °F 23.0 °F 80% 30.24 in 5.0 mi ENE 5.8 mph - N/A   Overcast
2:40 PM 28.4 °F 23.3 °F 23.0 °F 80% 30.23 in 5.0 mi NE 4.6 mph - N/A   Overcast
3:00 PM 28.4 °F 20.4 °F 24.8 °F 86% 30.21 in 3.0 mi East 8.1 mph - N/A   Overcast
3:20 PM 30.2 °F 24.3 °F 24.8 °F 80% 30.22 in 3.0 mi ENE 5.8 mph - N/A   Overcast
3:40 PM 30.2 °F 23.4 °F 26.6 °F 86% 30.21 in 3.0 mi ENE 6.9 mph - N/A   Overcast
4:00 PM 30.2 °F 24.3 °F 26.6 °F 86% 30.20 in 4.0 mi NE 5.8 mph - N/A   Overcast
4:20 PM 30.2 °F 25.4 °F 26.6 °F 86% 30.21 in 4.0 mi NE 4.6 mph - N/A   Overcast
4:40 PM 30.2 °F 25.4 °F 26.6 °F 86% 30.20 in 3.0 mi ENE 4.6 mph - N/A   Overcast
5:00 PM 30.2 °F 24.3 °F 26.6 °F 86% 30.19 in 3.0 mi ENE 5.8 mph - N/A   Overcast
5:20 PM 30.2 °F 25.4 °F 26.6 °F 86% 30.19 in 3.0 mi NE 4.6 mph - N/A   Overcast
5:40 PM 30.2 °F 25.4 °F 26.6 °F 86% 30.19 in 3.0 mi ENE 4.6 mph - N/A   Overcast
6:00 PM 30.2 °F 24.3 °F 26.6 °F 86% 30.18 in 2.5 mi ENE 5.8 mph - N/A   Overcast
6:20 PM 30.2 °F 23.4 °F 26.6 °F 86% 30.16 in 3.0 mi ENE 6.9 mph - N/A   Overcast
7:00 PM 30.2 °F 24.3 °F 26.6 °F 86% 30.13 in 5.0 mi ENE 5.8 mph - N/A   Overcast
7:20 PM 30.2 °F 25.4 °F 26.6 °F 86% 30.12 in 4.0 mi NE 4.6 mph - N/A   Overcast
7:40 PM 30.2 °F 26.7 °F 28.4 °F 93% 30.11 in 2.5 mi NE 3.5 mph - N/A   Overcast
8:00 PM 30.2 °F 26.7 °F 28.4 °F 93% 30.10 in 3.0 mi ENE 3.5 mph - N/A   Overcast
8:20 PM 30.2 °F 26.7 °F 28.4 °F 93% 30.09 in 2.5 mi NNE 3.5 mph - N/A   Overcast